JST926 YMML-YSSY

Flight info

Callsign JST926
Flight time 1h 5m
Altitude 33000
Route ML H129 DOSEL Y59 RIVET
Aircraft A320/M-SDE3FGHIRWY/LB1

Departure

Time 2026-05-07 10:09
Airport Melbourne Airport (YMML)

Arrival

Time 2026-05-07 11:14
Airport Sydney Kingsford Smith International Airport (YSSY)
Time Latitude Longitude Altitude Speed Heading
2026-05-07 09:37 -37.66914 144.84586 357 ft 0 kts 360°
2026-05-07 09:57 -37.66922 144.84586 363 ft 1 kts 359°
2026-05-07 09:57 -37.66932 144.84586 359 ft 1 kts 359°
2026-05-07 09:57 -37.66943 144.84586 364 ft 1 kts 358°
2026-05-07 09:58 -37.66953 144.84586 359 ft 1 kts 357°
2026-05-07 09:58 -37.66963 144.84587 362 ft 1 kts 356°
2026-05-07 09:58 -37.66973 144.84588 360 ft 1 kts 355°
2026-05-07 09:58 -37.66983 144.84589 359 ft 1 kts 354°
2026-05-07 09:59 -37.66993 144.84590 362 ft 1 kts 336°
2026-05-07 09:59 -37.67002 144.84596 361 ft 1 kts 311°
2026-05-07 09:59 -37.67008 144.84606 359 ft 1 kts 286°
2026-05-07 09:59 -37.67010 144.84613 358 ft 0 kts 271°
2026-05-07 10:01 -37.67010 144.84587 362 ft 5 kts 266°
2026-05-07 10:02 -37.67013 144.84545 360 ft 5 kts 266°
2026-05-07 10:02 -37.67015 144.84504 362 ft 5 kts 267°
2026-05-07 10:02 -37.67021 144.84468 363 ft 4 kts 250°
2026-05-07 10:02 -37.67035 144.84436 365 ft 4 kts 239°
2026-05-07 10:03 -37.67046 144.84391 366 ft 6 kts 257°
2026-05-07 10:03 -37.67056 144.84325 368 ft 10 kts 260°
2026-05-07 10:03 -37.67022 144.84239 372 ft 14 kts 333°
2026-05-07 10:03 -37.66907 144.84214 373 ft 20 kts 352°
2026-05-07 10:04 -37.66758 144.84187 375 ft 23 kts 351°
2026-05-07 10:04 -37.66624 144.84168 375 ft 16 kts
2026-05-07 10:04 -37.66532 144.84281 370 ft 25 kts 85°
2026-05-07 10:04 -37.66502 144.84530 357 ft 30 kts 82°
2026-05-07 10:05 -37.66483 144.84682 338 ft 8 kts 82°
2026-05-07 10:05 -37.66438 144.84782 331 ft 18 kts 24°
2026-05-07 10:05 -37.66351 144.84786 328 ft 0 kts 355°
2026-05-07 10:07 -37.66314 144.84783 329 ft 11 kts 356°
2026-05-07 10:08 -37.66230 144.84762 331 ft 13 kts 321°
2026-05-07 10:08 -37.66222 144.84721 333 ft 0 kts 275°
2026-05-07 10:08 -37.66221 144.84705 337 ft 16 kts 275°
2026-05-07 10:08 -37.66199 144.84270 365 ft 79 kts 274°
2026-05-07 10:09 -37.66145 144.83372 405 ft 124 kts 274°
2026-05-07 10:09 -37.66072 144.82200 764 ft 136 kts 274°
2026-05-07 10:09 -37.65994 144.81001 1425 ft 137 kts 273°
2026-05-07 10:09 -37.65915 144.79796 2116 ft 137 kts 271°
2026-05-07 10:10 -37.65838 144.78526 2434 ft 155 kts 269°
2026-05-07 10:10 -37.65767 144.77086 2718 ft 176 kts 270°
2026-05-07 10:10 -37.65664 144.75425 3064 ft 203 kts 270°
2026-05-07 10:10 -37.65556 144.73565 3546 ft 222 kts 269°
2026-05-07 10:11 -37.65449 144.71590 4332 ft 227 kts 269°
2026-05-07 10:11 -37.65319 144.69588 5226 ft 233 kts 273°
2026-05-07 10:11 -37.64782 144.67586 5982 ft 251 kts 290°
2026-05-07 10:11 -37.63686 144.65759 6717 ft 272 kts 310°
2026-05-07 10:12 -37.62065 144.64404 7459 ft 291 kts 329°
2026-05-07 10:12 -37.60062 144.63702 8145 ft 307 kts 345°
2026-05-07 10:12 -37.57927 144.63282 8904 ft 314 kts 349°
2026-05-07 10:12 -37.55705 144.63254 9667 ft 325 kts
2026-05-07 10:13 -37.53491 144.64028 10223 ft 341 kts 26°
2026-05-07 10:13 -37.51512 144.65789 10497 ft 358 kts 49°
2026-05-07 10:13 -37.50082 144.68379 10851 ft 365 kts 68°
2026-05-07 10:13 -37.48961 144.71282 11423 ft 372 kts 67°
2026-05-07 10:14 -37.47535 144.74029 12145 ft 379 kts 54°
2026-05-07 10:14 -37.45887 144.76626 12879 ft 381 kts 56°
2026-05-07 10:14 -37.44333 144.79348 13552 ft 384 kts 60°
2026-05-07 10:14 -37.42889 144.82187 14188 ft 387 kts 63°
2026-05-07 10:15 -37.41521 144.85120 14736 ft 391 kts 65°
2026-05-07 10:15 -37.40186 144.88119 15324 ft 394 kts 65°
2026-05-07 10:15 -37.38856 144.91144 15905 ft 397 kts 65°
2026-05-07 10:15 -37.37510 144.94192 16482 ft 400 kts 64°
2026-05-07 10:16 -37.36136 144.97253 17033 ft 404 kts 64°
2026-05-07 10:16 -37.34729 145.00336 17599 ft 408 kts 63°
2026-05-07 10:16 -37.33299 145.03439 18176 ft 412 kts 63°
2026-05-07 10:16 -37.31849 145.06569 18698 ft 416 kts 63°
2026-05-07 10:17 -37.30384 145.09719 19190 ft 420 kts 63°
2026-05-07 10:17 -37.28902 145.12902 19691 ft 423 kts 63°
2026-05-07 10:17 -37.27409 145.16105 20179 ft 427 kts 62°
2026-05-07 10:17 -37.25929 145.19289 20675 ft 430 kts 62°
2026-05-07 10:18 -37.24419 145.22547 21154 ft 433 kts 62°
2026-05-07 10:18 -37.22897 145.25825 21617 ft 436 kts 62°
2026-05-07 10:18 -37.21364 145.29120 22075 ft 440 kts 62°
2026-05-07 10:18 -37.19815 145.32448 22509 ft 443 kts 62°
2026-05-07 10:19 -37.18255 145.35797 22960 ft 446 kts 62°
2026-05-07 10:19 -37.16676 145.39168 23412 ft 450 kts 59°
2026-05-07 10:19 -37.14883 145.42407 23849 ft 454 kts 56°
2026-05-07 10:19 -37.13035 145.45629 24233 ft 457 kts 55°
2026-05-07 10:20 -37.11172 145.48866 24607 ft 460 kts 55°
2026-05-07 10:20 -37.09298 145.52121 24996 ft 462 kts 55°
2026-05-07 10:20 -37.07412 145.55397 25400 ft 464 kts 55°
2026-05-07 10:20 -37.05520 145.58680 25775 ft 467 kts 55°
2026-05-07 10:21 -37.03617 145.61978 26148 ft 469 kts 55°
2026-05-07 10:21 -37.01700 145.65300 26502 ft 471 kts 55°
2026-05-07 10:21 -36.99775 145.68637 26880 ft 474 kts 55°
2026-05-07 10:21 -36.97841 145.71986 27251 ft 476 kts 54°
2026-05-07 10:22 -36.95895 145.75355 27619 ft 478 kts 54°
2026-05-07 10:22 -36.93943 145.78732 28009 ft 481 kts 55°
2026-05-07 10:22 -36.91975 145.82136 28324 ft 484 kts 54°
2026-05-07 10:22 -36.89997 145.85554 28666 ft 487 kts 54°
2026-05-07 10:23 -36.88006 145.88992 29001 ft 489 kts 54°
2026-05-07 10:23 -36.86006 145.92438 29376 ft 491 kts 54°
2026-05-07 10:23 -36.83992 145.95900 29712 ft 494 kts 54°
2026-05-07 10:23 -36.81968 145.99371 30072 ft 496 kts 54°
2026-05-07 10:24 -36.79933 146.02859 30399 ft 499 kts 54°
2026-05-07 10:24 -36.77888 146.06362 30715 ft 501 kts 54°
2026-05-07 10:24 -36.75832 146.09884 30981 ft 504 kts 54°
2026-05-07 10:24 -36.73766 146.13420 31313 ft 505 kts 54°
2026-05-07 10:25 -36.71689 146.16964 31625 ft 506 kts 54°
2026-05-07 10:25 -36.69615 146.20505 31943 ft 508 kts 54°
2026-05-07 10:25 -36.67528 146.24070 32241 ft 509 kts 54°
2026-05-07 10:25 -36.65444 146.27626 32658 ft 508 kts 54°
2026-05-07 10:26 -36.63363 146.31171 33097 ft 507 kts 54°
2026-05-07 10:26 -36.61277 146.34715 33247 ft 504 kts 55°
2026-05-07 10:26 -36.59234 146.38183 33276 ft 489 kts 55°
2026-05-07 10:27 -36.55277 146.44891 33263 ft 478 kts 55°
2026-05-07 10:27 -36.51346 146.51535 33279 ft 476 kts 55°
2026-05-07 10:28 -36.47455 146.58112 33279 ft 474 kts 55°
2026-05-07 10:28 -36.43555 146.64687 33266 ft 472 kts 55°
2026-05-07 10:29 -36.39652 146.71250 33270 ft 472 kts 55°
2026-05-07 10:29 -36.36383 146.76733 33271 ft 472 kts 55°
2026-05-07 10:30 -36.30525 146.86549 33291 ft 472 kts 55°
2026-05-07 10:30 -36.26617 146.93091 33280 ft 472 kts 55°
2026-05-07 10:31 -36.22702 146.99630 33268 ft 472 kts 55°
2026-05-07 10:31 -36.18779 147.06151 33267 ft 472 kts 55°
2026-05-07 10:32 -36.14855 147.12673 33296 ft 472 kts 55°
2026-05-07 10:32 -36.10963 147.19151 33284 ft 472 kts 55°
2026-05-07 10:33 -36.07037 147.25645 33272 ft 472 kts 55°
2026-05-07 10:33 -36.03107 147.32128 33279 ft 471 kts 55°
2026-05-07 10:34 -35.99186 147.38603 33304 ft 470 kts 56°
2026-05-07 10:34 -35.95262 147.45066 33295 ft 471 kts 56°
2026-05-07 10:35 -35.91331 147.51522 33284 ft 471 kts 56°
2026-05-07 10:35 -35.87397 147.57972 33271 ft 471 kts 55°
2026-05-07 10:36 -35.83464 147.64427 33283 ft 471 kts 55°
2026-05-07 10:36 -35.79520 147.70877 33266 ft 471 kts 56°
2026-05-07 10:37 -35.75569 147.77303 33276 ft 471 kts 56°
2026-05-07 10:37 -35.71614 147.83748 33270 ft 475 kts 56°
2026-05-07 10:38 -35.67550 147.90371 33271 ft 495 kts 55°
2026-05-07 10:38 -35.63319 147.97235 33268 ft 512 kts 55°
2026-05-07 10:39 -35.58956 148.04291 33269 ft 522 kts 55°
2026-05-07 10:39 -35.54554 148.11395 33264 ft 523 kts 55°
2026-05-07 10:40 -35.50143 148.18498 33266 ft 524 kts 55°
2026-05-07 10:40 -35.45713 148.25624 33264 ft 527 kts 55°
2026-05-07 10:41 -35.41254 148.32772 33263 ft 527 kts 55°
2026-05-07 10:41 -35.36801 148.39906 33252 ft 527 kts 55°
2026-05-07 10:42 -35.32338 148.47043 33242 ft 528 kts 55°
2026-05-07 10:42 -35.27869 148.54185 33244 ft 529 kts 55°
2026-05-07 10:43 -35.23370 148.61341 33219 ft 531 kts 55°
2026-05-07 10:43 -35.18864 148.68497 33214 ft 532 kts 55°
2026-05-07 10:44 -35.14334 148.75685 33252 ft 534 kts 55°
2026-05-07 10:44 -35.09795 148.82860 33230 ft 534 kts 55°
2026-05-07 10:45 -35.05243 148.90043 33200 ft 535 kts 55°
2026-05-07 10:45 -35.00696 148.97220 33233 ft 534 kts 55°
2026-05-07 10:46 -34.96143 149.04377 33237 ft 534 kts 55°
2026-05-07 10:46 -34.91587 149.11521 33224 ft 535 kts 55°
2026-05-07 10:47 -34.87021 149.18677 32874 ft 534 kts 54°
2026-05-07 10:47 -34.84742 149.22240 31729 ft 533 kts 54°
2026-05-07 10:47 -34.82465 149.25798 31311 ft 535 kts 54°
2026-05-07 10:48 -34.80161 149.29403 30699 ft 544 kts 54°
2026-05-07 10:48 -34.77833 149.33044 30082 ft 548 kts 54°
2026-05-07 10:48 -34.75488 149.36703 29567 ft 549 kts 54°
2026-05-07 10:48 -34.73344 149.40524 29086 ft 545 kts 64°
2026-05-07 10:49 -34.71548 149.44591 28604 ft 545 kts 65°
2026-05-07 10:49 -34.69772 149.48660 28116 ft 546 kts 65°
2026-05-07 10:49 -34.67999 149.52746 27624 ft 546 kts 65°
2026-05-07 10:49 -34.66252 149.56763 27302 ft 533 kts 65°
2026-05-07 10:50 -34.64544 149.60672 27202 ft 515 kts 66°
2026-05-07 10:50 -34.62885 149.64453 27063 ft 499 kts 66°
2026-05-07 10:50 -34.61275 149.68114 26903 ft 485 kts 66°
2026-05-07 10:50 -34.59707 149.71680 26664 ft 474 kts 66°
2026-05-07 10:51 -34.58188 149.75138 26280 ft 468 kts 66°
2026-05-07 10:51 -34.56667 149.78604 25849 ft 464 kts 66°
2026-05-07 10:51 -34.55161 149.82036 25148 ft 458 kts 65°
2026-05-07 10:51 -34.53669 149.85429 24381 ft 453 kts 65°
2026-05-07 10:52 -34.52195 149.88778 23649 ft 448 kts 65°
2026-05-07 10:52 -34.50732 149.92100 22795 ft 444 kts 66°
2026-05-07 10:52 -34.49285 149.95376 21997 ft 437 kts 66°
2026-05-07 10:52 -34.47859 149.98593 21521 ft 431 kts 66°
2026-05-07 10:53 -34.46446 150.01777 21081 ft 427 kts 67°
2026-05-07 10:53 -34.45041 150.04944 20635 ft 425 kts 67°
2026-05-07 10:53 -34.43650 150.08087 20177 ft 422 kts 67°
2026-05-07 10:53 -34.42266 150.11210 19734 ft 420 kts 67°
2026-05-07 10:54 -34.40887 150.14312 19293 ft 418 kts 68°
2026-05-07 10:54 -34.39508 150.17405 18946 ft 414 kts 68°
2026-05-07 10:54 -34.38144 150.20460 18567 ft 411 kts 69°
2026-05-07 10:54 -34.36792 150.23484 18038 ft 404 kts 69°
2026-05-07 10:55 -34.35474 150.26435 17485 ft 392 kts 69°
2026-05-07 10:55 -34.34197 150.29285 17058 ft 378 kts 69°
2026-05-07 10:55 -34.32968 150.32028 16687 ft 363 kts 69°
2026-05-07 10:55 -34.31783 150.34672 16309 ft 352 kts 70°
2026-05-07 10:56 -34.30632 150.37237 15935 ft 342 kts 70°
2026-05-07 10:56 -34.29505 150.39759 15572 ft 340 kts 71°
2026-05-07 10:56 -34.28386 150.42278 15200 ft 339 kts 71°
2026-05-07 10:56 -34.27276 150.44774 14832 ft 336 kts 71°
2026-05-07 10:57 -34.26174 150.47248 14500 ft 332 kts 70°
2026-05-07 10:57 -34.25082 150.49682 14131 ft 326 kts 70°
2026-05-07 10:57 -34.24007 150.52083 13739 ft 324 kts 70°
2026-05-07 10:57 -34.22943 150.54473 13478 ft 327 kts 69°
2026-05-07 10:58 -34.21859 150.56918 13036 ft 328 kts 68°
2026-05-07 10:58 -34.20793 150.59301 12681 ft 317 kts 68°
2026-05-07 10:58 -34.19753 150.61604 12326 ft 308 kts 68°
2026-05-07 10:58 -34.18728 150.63885 11981 ft 310 kts 67°
2026-05-07 10:59 -34.17704 150.66164 11659 ft 308 kts 66°
2026-05-07 10:59 -34.16687 150.68424 11324 ft 304 kts 66°
2026-05-07 10:59 -34.15684 150.70651 10993 ft 301 kts 65°
2026-05-07 10:59 -34.14685 150.72868 10668 ft 298 kts 65°
2026-05-07 11:00 -34.13706 150.75047 10339 ft 292 kts 64°
2026-05-07 11:00 -34.12741 150.77189 10013 ft 289 kts 63°
2026-05-07 11:00 -34.11784 150.79313 9567 ft 287 kts 64°
2026-05-07 11:00 -34.10846 150.81387 9228 ft 284 kts 63°
2026-05-07 11:01 -34.09889 150.83507 8911 ft 287 kts 64°
2026-05-07 11:01 -34.08922 150.85666 8640 ft 301 kts 64°
2026-05-07 11:01 -34.07956 150.87946 8343 ft 301 kts 70°
2026-05-07 11:01 -34.07189 150.90287 8036 ft 301 kts 72°
2026-05-07 11:02 -34.06454 150.92647 7701 ft 300 kts 73°
2026-05-07 11:02 -34.05719 150.94999 7364 ft 299 kts 72°
2026-05-07 11:02 -34.04989 150.97337 7037 ft 298 kts 73°
2026-05-07 11:02 -34.04254 150.99671 6712 ft 297 kts 73°
2026-05-07 11:03 -34.03533 151.01999 6379 ft 296 kts 76°
2026-05-07 11:03 -34.02926 151.04358 6070 ft 293 kts 78°
2026-05-07 11:03 -34.02346 151.06692 6003 ft 291 kts 78°
2026-05-07 11:03 -34.01763 151.09023 5899 ft 291 kts 78°
2026-05-07 11:04 -34.01184 151.11357 5634 ft 290 kts 78°
2026-05-07 11:04 -34.00606 151.13681 5377 ft 289 kts 78°
2026-05-07 11:04 -34.00031 151.15996 5121 ft 288 kts 78°
2026-05-07 11:04 -33.99457 151.18311 4863 ft 288 kts 78°
2026-05-07 11:05 -33.98885 151.20589 4604 ft 288 kts 78°
2026-05-07 11:05 -33.98303 151.22894 4347 ft 288 kts 78°
2026-05-07 11:05 -33.97717 151.25231 4079 ft 288 kts 78°
2026-05-07 11:05 -33.97156 151.27469 3826 ft 285 kts 78°
2026-05-07 11:06 -33.96585 151.29736 3564 ft 281 kts 78°
2026-05-07 11:06 -33.96023 151.31975 3305 ft 278 kts 78°
2026-05-07 11:06 -33.95469 151.34190 3095 ft 274 kts 77°
2026-05-07 11:06 -33.94934 151.36344 2992 ft 262 kts 78°
2026-05-07 11:07 -33.94422 151.38377 2999 ft 246 kts 77°
2026-05-07 11:07 -33.93934 151.40283 2992 ft 231 kts 79°
2026-05-07 11:07 -33.93406 151.42071 2995 ft 230 kts 67°
2026-05-07 11:07 -33.92333 151.43478 3010 ft 230 kts 27°
2026-05-07 11:08 -33.90843 151.43950 3005 ft 217 kts 345°
2026-05-07 11:08 -33.89522 151.43372 3031 ft 192 kts 310°
2026-05-07 11:08 -33.88757 151.42177 3026 ft 171 kts 278°
2026-05-07 11:08 -33.88601 151.40844 3017 ft 156 kts 254°
2026-05-07 11:09 -33.88864 151.39604 3012 ft 155 kts 247°
2026-05-07 11:09 -33.89162 151.38353 3009 ft 155 kts 247°
2026-05-07 11:09 -33.89441 151.37169 2998 ft 139 kts 246°
2026-05-07 11:09 -33.89704 151.36066 2913 ft 133 kts 245°
2026-05-07 11:10 -33.89958 151.34999 2784 ft 134 kts 246°
2026-05-07 11:10 -33.90212 151.33934 2614 ft 132 kts 246°
2026-05-07 11:10 -33.90460 151.32891 2445 ft 128 kts 248°
2026-05-07 11:10 -33.90702 151.31873 2272 ft 125 kts 248°
2026-05-07 11:11 -33.90941 151.30866 2104 ft 125 kts 249°
2026-05-07 11:11 -33.91180 151.29860 1931 ft 125 kts 249°
2026-05-07 11:11 -33.91421 151.28848 1765 ft 130 kts 250°
2026-05-07 11:11 -33.91666 151.27814 1574 ft 128 kts 250°
2026-05-07 11:12 -33.91907 151.26794 1445 ft 122 kts 250°
2026-05-07 11:12 -33.92135 151.25831 1274 ft 118 kts 251°
2026-05-07 11:12 -33.92358 151.24889 1100 ft 113 kts 253°
2026-05-07 11:12 -33.92558 151.23985 947 ft 112 kts 253°
2026-05-07 11:13 -33.92716 151.23408 808 ft 109 kts 249°
2026-05-07 11:13 -33.92974 151.22533 609 ft 112 kts 256°
2026-05-07 11:13 -33.93133 151.21605 485 ft 114 kts 255°
2026-05-07 11:13 -33.93370 151.20678 400 ft 117 kts 256°
2026-05-07 11:14 -33.93588 151.19769 282 ft 111 kts 254°
2026-05-07 11:14 -33.93788 151.18842 109 ft 113 kts 257°
2026-05-07 11:14 -33.93985 151.18000 26 ft 80 kts 254°
2026-05-07 11:14 -33.94076 151.17623 21 ft 36 kts 254°
2026-05-07 11:15 -33.94131 151.17402 21 ft 24 kts 256°
2026-05-07 11:15 -33.94127 151.17268 23 ft 15 kts 322°
2026-05-07 11:15 -33.94035 151.17239 21 ft 4 kts 343°
2026-05-07 11:15 -33.94034 151.17238 21 ft 0 kts 343°
2026-05-07 11:16 -33.94026 151.17235 21 ft 6 kts 343°
2026-05-07 11:16 -33.94006 151.17229 20 ft 0 kts 345°
2026-05-07 11:16 -33.93972 151.17243 19 ft 10 kts 52°
2026-05-07 11:16 -33.93960 151.17283 18 ft 0 kts 76°
2026-05-07 11:17 -33.93959 151.17286 18 ft 2 kts 76°
2026-05-07 11:17 -33.93948 151.17333 18 ft 9 kts 73°
2026-05-07 11:17 -33.93925 151.17428 19 ft 13 kts 73°
2026-05-07 11:17 -33.93901 151.17526 19 ft 9 kts 73°
2026-05-07 11:18 -33.93897 151.17542 19 ft 0 kts 74°
2026-05-07 11:18 -33.93891 151.17568 19 ft 8 kts 73°
2026-05-07 11:19 -33.93832 151.17599 18 ft 13 kts 352°
2026-05-07 11:19 -33.93728 151.17566 19 ft 18 kts 348°
2026-05-07 11:19 -33.93588 151.17530 17 ft 21 kts 348°
2026-05-07 11:19 -33.93493 151.17505 19 ft 7 kts 349°
2026-05-07 11:20 -33.93462 151.17533 23 ft 6 kts 74°
2026-05-07 11:20 -33.93458 151.17563 25 ft 0 kts 80°
2026-05-07 11:20 -33.93458 151.17564 25 ft 1 kts 80°
2026-05-07 11:20 -33.93456 151.17573 27 ft 4 kts 80°
2026-05-07 11:21 -33.93457 151.17639 30 ft 11 kts 97°
2026-05-07 11:21 -33.93463 151.17691 30 ft 0 kts 96°